Temp
84 87 80 80 80 80 80 80 80 80 80 80 80 80 80 79 80 80 80 80 80 81 81 81 81 81 81 81 80 80 80 80 80 81 81 81 81 81 80 80 81 88 80
87 88 80 80 80 80 80 80 80 79 79 79 80 80 79 79 80 80 80 80 80 81 81 81 81 80 81 81 80 80 80 80 80 80 81 82 81 80 81 82 81 87 80
87 87 85 80 80 80 80 80 79 79 79 79 79 79 79 79 80 79 80 80 81 81 81 80 80 80 81 81 81 80 80 80 80 80 80 90 89 82 81 82 82 81 80
86 87 87 79 80 80 80 79 79 79 79 79 79 79 79 79 80 80 80 80 80 80 80 80 80 80 81 81 81 81 80 81 81 80 89 88 89 82 80 81 81 81 81
86 87 85 79 79 80 80 79 79 79 79 79 79 79 79 79 79 79 80 80 80 80 80 80 80 80 81 81 80 80 80 80 80 85 88 88 88 85 79 80 82 82 81
87 88 82 79 79 80 80 79 79 79 79 79 79 79 79 79 79 79 79 79 79 80 80 80 80 80 80 80 79 79 79 80 82 90 87 86 87 77 78 80 80 80 79
83 88 87 79 79 80 80 79 79 79 79 79 79 79 79 79 79 79 79 79 79 80 80 81 80 79 79 78 78 78 78 79 87 89 87 86 87 77 79 79 79 79 79
82 87 87 80 79 79 80 79 79 78 78 79 79 79 79 79 79 79 79 79 79 79 79 80 79 78 77 77 77 77 77 77 86 85 86 87 79 77 79 79 78 78 79
85 86 86 87 83 79 79 78 78 78 78 78 78 78 78 78 78 79 78 78 78 79 79 78 77 77 76 76 76 76 75 75 87 85 84 85 76 77 78 78 78 78 78
83 81 83 85 88 87 87 79 78 78 78 78 78 78 78 78 78 78 77 78 78 78 77 77 76 75 75 75 74 74 73 76 85 84 84 83 75 76 77 77 78 78 78
84 83 83 84 87 87 88 85 79 79 79 78 79 78 79 87 85 83 78 78 78 77 76 76 75 73 73 73 72 72 73 82 82 81 82 74 73 75 76 76 77 77 78
84 85 86 85 85 86 86 85 85 86 87 85 85 83 86 83 84 85 81 77 76 75 75 73 72 73 76 81 81 76 80 80 80 78 80 71 72 73 74 75 75 76 76
88 86 85 83 83 85 86 85 86 86 85 84 82 82 82 83 82 84 82 82 80 76 83 80 80 80 77 78 79 79 78 78 78 77 76 69 71 72 73 73 75 75 75
87 86 86 85 82 82 85 84 85 84 83 83 82 79 79 81 79 79 81 79 79 80 77 77 79 74 75 74 75 75 75 75 76 75 75 68 69 70 72 72 72 73 73
86 86 86 84 81 81 79 82 82 82 83 83 81 80 82 80 77 78 77 79 78 78 77 76 75 73 73 72 75 73 73 72 72 74 74 67 67 68 69 69 71 71 71
84 85 86 84 81 82 80 79 81 80 81 81 81 81 78 78 75 77 76 76 75 73 76 75 70 68 72 73 73 71 71 71 71 71 73 73 65 66 67 68 69 69 70
85 84 82 82 82 79 80 80 80 81 82 80 80 77 77 76 74 74 75 69 68 73 71 65 71 72 72 72 71 72 71 71 71 69 71 72 73 66 65 66 67 67 68
86 84 82 85 83 79 80 80 81 80 80 78 77 76 76 74 73 73 73 71 67 66 66 68 71 71 70 70 70 71 70 70 70 70 71 71 71 72 69 65 65 66 66
85 84 83 83 82 80 78 79 78 76 78 76 77 77 75 74 73 72 71 64 63 65 72 71 70 68 68 68 69 70 70 70 69 72 69 69 70 70 70 67 65 64 64
83 83 82 81 79 78 77 76 76 76 75 76 75 74 72 72 72 71 65 62 67 72 71 70 66 68 67 66 67 68 68 69 69 69 68 70 71 70 70 68 69 70 65
79 78 77 77 75 76 76 76 75 73 72 72 73 72 71 71 71 65 63 69 71 70 67 66 66 65 67 66 64 66 67 68 67 70 69 70 70 69 68 69 69 69 69
76 76 75 75 73 75 76 73 74 73 73 73 72 70 70 69 65 64 70 70 69 69 66 65 63 64 65 66 61 62 60 65 67 69 70 68 68 69 69 69 68 67 67
75 75 74 74 73 73 72 72 71 71 70 70 69 70 67 64 69 69 68 69 68 67 67 64 64 61 61 64 63 60 56 57 60 66 64 66 65 66 68 68 67 66 66
69 72 74 73 72 73 72 72 71 73 70 68 66 63 64 67 67 68 67 67 66 67 64 64 65 62 61 60 64 65 63 60 55 54 62 64 65 65 65 66 67 66 66
69 72 73 72 73 72 73 73 73 71 67 64 65 65 64 64 65 66 66 65 65 66 64 62 62 61 63 61 61 58 59 61 60 55 51 57 63 64 66 66 67 67 66
71 72 71 70 69 70 71 71 69 67 66 66 65 66 67 67 67 64 65 65 64 63 63 64 62 61 61 61 61 60 58 56 55 50 50 53 54 59 60 62 65 66 65
MSLP
1015.91 1016.08 1016.86 1017.13 1017.32 1017.47 1017.85 1017.97 1018.12 1018.31 1018.36 1018.41 1018.58 1018.79 1018.94 1019.10 1019.20 1019.35 1019.40 1019.44 1019.42 1019.40 1019.44 1019.48 1019.47 1019.55 1019.52 1019.54 1019.57 1019.56 1019.46 1019.39 1019.31 1019.18 1019.06 1018.96 1018.88 1018.76 1018.70 1018.70 1018.64 1018.16 1018.48
1015.26 1016.04 1016.94 1017.15 1017.37 1017.63 1017.93 1018.09 1018.11 1018.21 1018.29 1018.58 1018.64 1018.91 1019.01 1019.26 1019.34 1019.45 1019.50 1019.48 1019.48 1019.46 1019.59 1019.66 1019.71 1019.76 1019.71 1019.69 1019.71 1019.62 1019.58 1019.48 1019.38 1019.23 1019.09 1018.90 1018.80 1018.72 1018.57 1018.43 1018.32 1017.96 1018.32
1015.25 1015.89 1016.75 1017.23 1017.44 1017.64 1017.84 1018.07 1018.05 1018.14 1018.32 1018.70 1018.86 1019.02 1019.13 1019.33 1019.30 1019.42 1019.43 1019.44 1019.49 1019.54 1019.67 1019.73 1019.80 1019.81 1019.80 1019.81 1019.81 1019.75 1019.64 1019.50 1019.37 1019.23 1019.13 1018.51 1018.40 1018.66 1018.54 1018.31 1018.04 1017.95 1018.02
1015.25 1015.81 1016.49 1017.18 1017.36 1017.57 1017.84 1017.90 1018.06 1018.30 1018.58 1018.79 1018.90 1019.04 1019.10 1019.18 1019.30 1019.39 1019.43 1019.51 1019.59 1019.70 1019.77 1019.81 1019.88 1019.91 1019.83 1019.78 1019.78 1019.77 1019.66 1019.55 1019.39 1019.23 1018.63 1018.57 1018.42 1018.55 1018.54 1018.34 1018.11 1017.85 1017.66
1015.34 1015.75 1016.37 1017.01 1017.25 1017.43 1017.71 1017.89 1018.16 1018.38 1018.60 1018.64 1018.80 1019.03 1019.19 1019.29 1019.50 1019.61 1019.63 1019.67 1019.72 1019.75 1019.78 1019.84 1019.88 1019.90 1019.86 1019.84 1019.82 1019.74 1019.58 1019.39 1019.24 1018.86 1018.62 1018.51 1018.40 1018.28 1018.51 1018.29 1017.85 1017.51 1017.45
1015.26 1015.76 1016.42 1016.76 1017.02 1017.30 1017.62 1017.98 1018.19 1018.33 1018.45 1018.61 1018.93 1019.19 1019.29 1019.45 1019.64 1019.77 1019.80 1019.82 1019.90 1019.88 1019.87 1019.90 1019.94 1019.92 1019.87 1019.80 1019.73 1019.67 1019.57 1019.38 1018.98 1018.53 1018.71 1018.68 1018.44 1018.66 1018.37 1018.06 1017.83 1017.65 1017.34
1015.52 1015.69 1016.21 1016.84 1017.22 1017.44 1017.65 1017.87 1018.04 1018.34 1018.56 1018.81 1018.99 1019.08 1019.30 1019.52 1019.65 1019.73 1019.77 1019.86 1019.93 1019.91 1019.92 1019.88 1019.88 1019.89 1019.87 1019.82 1019.78 1019.73 1019.64 1019.48 1019.00 1018.62 1018.54 1018.53 1018.28 1018.65 1018.26 1018.01 1017.78 1017.41 1017.20
1015.42 1015.71 1016.24 1017.07 1017.31 1017.39 1017.69 1018.02 1018.34 1018.56 1018.70 1018.94 1019.16 1019.30 1019.47 1019.64 1019.76 1019.83 1019.86 1019.96 1020.01 1020.03 1019.96 1019.92 1019.90 1019.87 1019.93 1019.95 1019.86 1019.78 1019.72 1019.58 1018.92 1018.80 1018.59 1018.33 1018.51 1018.48 1018.25 1018.00 1017.78 1017.52 1017.08
1015.68 1015.96 1016.44 1016.73 1017.20 1017.50 1017.71 1018.00 1018.30 1018.49 1018.70 1018.91 1019.03 1019.21 1019.44 1019.54 1019.70 1019.84 1019.95 1019.96 1019.92 1019.92 1019.90 1019.98 1020.04 1020.08 1020.03 1019.97 1019.97 1019.86 1019.76 1019.59 1018.72 1018.70 1018.61 1018.29 1018.49 1018.40 1018.16 1017.83 1017.53 1017.31 1017.12
1015.93 1016.36 1016.43 1016.56 1016.69 1017.00 1017.45 1018.02 1018.14 1018.42 1018.68 1018.92 1019.04 1019.23 1019.42 1019.50 1019.61 1019.70 1019.68 1019.80 1019.82 1019.82 1019.96 1020.09 1020.14 1020.17 1020.18 1020.14 1019.99 1019.88 1019.69 1019.28 1018.70 1018.56 1018.33 1018.21 1018.49 1018.18 1017.92 1017.70 1017.42 1017.12 1016.78
1015.57 1016.03 1016.37 1016.55 1016.71 1017.00 1017.14 1017.55 1018.22 1018.51 1018.69 1018.98 1019.26 1019.41 1019.50 1019.26 1019.38 1019.45 1019.71 1019.76 1019.84 1019.92 1020.00 1020.05 1020.13 1020.19 1020.22 1020.15 1020.03 1019.84 1019.50 1018.89 1018.69 1018.51 1018.26 1018.52 1018.36 1018.04 1017.67 1017.43 1017.13 1016.84 1016.54
1015.12 1015.62 1015.83 1016.25 1016.53 1016.99 1017.28 1017.48 1017.83 1018.01 1018.24 1018.59 1018.79 1019.06 1019.05 1019.26 1019.34 1019.36 1019.64 1019.87 1019.98 1020.04 1020.15 1020.26 1020.27 1020.20 1019.90 1019.62 1019.41 1019.45 1019.12 1018.97 1018.64 1018.60 1018.25 1018.76 1018.32 1017.84 1017.48 1017.13 1016.89 1016.59 1016.38
1014.12 1015.14 1015.54 1016.11 1016.54 1016.75 1017.14 1017.51 1017.79 1018.12 1018.39 1018.77 1019.04 1019.03 1019.29 1019.41 1019.48 1019.38 1019.54 1019.76 1019.97 1020.11 1019.75 1019.88 1019.81 1019.81 1019.92 1019.79 1019.46 1019.35 1019.21 1018.86 1018.64 1018.60 1018.44 1018.62 1018.18 1017.78 1017.46 1016.90 1016.44 1016.28 1016.10
1014.10 1014.62 1015.03 1015.46 1016.26 1016.82 1017.35 1017.63 1017.79 1018.22 1018.58 1018.80 1019.00 1019.30 1019.37 1019.36 1019.51 1019.61 1019.77 1019.88 1020.02 1020.05 1020.10 1020.11 1019.96 1020.13 1019.96 1019.85 1019.74 1019.56 1019.22 1018.95 1018.68 1018.59 1018.26 1018.54 1018.04 1017.72 1017.31 1016.92 1016.53 1016.27 1016.10
1014.01 1014.44 1014.86 1015.48 1016.04 1016.75 1017.48 1017.60 1017.86 1018.08 1018.39 1018.75 1019.10 1019.28 1019.35 1019.43 1019.72 1019.79 1020.03 1019.89 1020.10 1020.20 1020.25 1020.14 1020.10 1020.22 1020.02 1019.85 1019.56 1019.42 1019.13 1019.04 1018.87 1018.40 1018.17 1018.43 1018.16 1017.85 1017.59 1017.23 1016.66 1016.36 1016.17
1013.75 1014.10 1014.82 1015.37 1016.11 1016.49 1016.99 1017.49 1017.70 1018.18 1018.41 1018.62 1018.91 1019.18 1019.55 1019.67 1019.96 1019.95 1020.00 1020.11 1020.35 1020.57 1020.36 1020.24 1020.49 1020.55 1019.86 1019.63 1019.39 1019.37 1019.22 1018.93 1018.67 1018.40 1017.97 1017.73 1018.23 1018.00 1017.70 1017.39 1016.79 1016.50 1016.30
1013.31 1013.94 1014.43 1015.22 1015.70 1016.33 1016.79 1017.26 1017.48 1017.69 1018.01 1018.52 1018.87 1019.35 1019.59 1019.89 1020.13 1020.24 1020.22 1020.71 1020.87 1020.55 1020.63 1020.86 1020.51 1020.23 1019.91 1019.59 1019.22 1018.92 1018.80 1018.64 1018.34 1018.26 1018.05 1017.87 1017.53 1017.81 1017.65 1017.52 1016.98 1016.72 1016.45
1013.17 1013.63 1014.32 1014.85 1015.72 1016.08 1016.40 1016.87 1017.13 1017.49 1017.86 1018.44 1019.00 1019.41 1019.67 1019.92 1020.26 1020.33 1020.54 1020.66 1021.00 1020.98 1020.96 1020.71 1020.25 1020.00 1019.99 1019.61 1019.23 1018.61 1018.44 1018.33 1018.14 1018.10 1017.96 1017.80 1017.55 1017.27 1017.20 1017.48 1017.11 1016.81 1016.49
1012.87 1013.28 1013.91 1014.43 1015.07 1015.93 1016.39 1016.61 1017.09 1017.61 1017.91 1018.53 1018.92 1019.26 1019.70 1020.01 1020.26 1020.49 1020.61 1021.18 1021.10 1021.00 1020.63 1020.57 1020.23 1020.22 1020.03 1019.54 1018.94 1018.46 1018.13 1017.88 1017.84 1017.69 1017.85 1017.67 1017.46 1017.26 1017.08 1016.98 1016.91 1016.72 1016.51
1012.80 1013.20 1013.74 1014.26 1014.86 1015.59 1016.36 1016.84 1017.22 1017.72 1018.08 1018.67 1019.02 1019.44 1019.87 1020.12 1020.35 1020.62 1020.89 1021.17 1020.98 1020.60 1020.66 1020.50 1020.33 1020.30 1020.00 1019.66 1018.91 1018.48 1018.10 1017.78 1017.69 1017.65 1017.55 1017.34 1016.99 1016.95 1016.72 1016.68 1016.48 1016.05 1016.17
1013.02 1013.31 1013.77 1014.28 1014.81 1015.36 1015.83 1016.62 1017.15 1017.59 1018.36 1019.00 1019.30 1019.70 1019.95 1020.08 1020.38 1020.85 1020.92 1020.55 1020.89 1020.73 1020.72 1020.68 1020.48 1020.38 1019.53 1019.47 1018.82 1018.35 1017.82 1017.73 1017.82 1017.50 1017.10 1016.78 1016.47 1016.52 1016.55 1016.29 1016.07 1015.89 1015.61
1013.08 1013.45 1013.86 1014.28 1014.69 1015.36 1015.72 1016.49 1017.01 1017.69 1018.47 1018.94 1019.36 1019.76 1020.05 1020.39 1020.76 1020.79 1020.50 1020.59 1020.76 1020.49 1020.71 1020.80 1020.58 1020.26 1019.72 1019.47 1019.18 1018.30 1017.18 1017.09 1017.21 1016.80 1016.63 1016.50 1016.32 1016.22 1015.98 1015.87 1015.81 1015.70 1015.59
1013.29 1013.60 1014.04 1014.47 1015.00 1015.46 1016.03 1016.61 1017.21 1017.92 1018.61 1019.04 1019.51 1019.86 1020.35 1020.66 1020.42 1020.51 1020.67 1020.69 1020.64 1020.63 1020.58 1020.68 1020.50 1020.50 1019.77 1019.24 1019.49 1019.04 1017.74 1017.12 1016.99 1016.49 1016.68 1016.60 1016.60 1016.24 1015.77 1015.42 1015.33 1015.33 1015.40
1013.87 1013.98 1014.31 1014.94 1015.29 1015.97 1016.28 1016.47 1016.77 1017.20 1017.98 1018.87 1019.75 1020.23 1020.45 1020.48 1020.54 1020.68 1020.71 1020.80 1020.80 1020.65 1020.71 1020.55 1020.41 1020.33 1020.01 1019.13 1019.09 1018.84 1018.83 1018.49 1017.76 1016.34 1016.22 1016.22 1016.13 1015.92 1015.56 1015.27 1014.80 1014.73 1014.97
1014.09 1014.16 1014.47 1015.15 1015.66 1016.20 1016.12 1016.47 1016.82 1017.41 1018.36 1019.21 1019.77 1020.06 1020.49 1020.77 1020.86 1020.91 1020.96 1021.04 1020.91 1020.71 1020.70 1020.60 1020.31 1020.09 1019.77 1019.51 1019.21 1019.15 1018.79 1018.26 1018.05 1017.78 1016.16 1015.82 1015.87 1015.68 1015.36 1014.77 1014.49 1014.28 1014.43
1014.47 1014.55 1014.89 1015.23 1016.17 1016.21 1016.37 1016.80 1017.08 1017.65 1018.35 1019.04 1019.60 1020.02 1020.39 1020.65 1020.82 1021.18 1021.10 1021.12 1021.06 1020.81 1020.56 1020.24 1020.17 1020.02 1019.69 1019.55 1019.27 1019.02 1018.68 1018.46 1018.26 1018.38 1017.70 1016.50 1015.82 1015.46 1015.40 1014.91 1014.26 1013.95 1014.04
Wind_Speed
11 15 16 15 16 15 13 13 14 14 15 15 14 13 13 11 10 10 10 9 8 8 8 7 7 7 8 8 7 7 7 7 7 7 6 5 5 6 6 8 8 9 6
17 16 15 15 16 16 14 14 15 15 14 13 13 13 12 10 10 9 9 8 7 7 6 7 7 7 7 7 6 6 6 5 6 6 7 3 2 6 7 8 11 10 4
18 16 16 14 15 15 15 15 15 15 14 13 12 12 11 10 10 8 7 7 6 7 6 6 6 6 5 6 6 6 6 5 6 6 5 5 6 6 10 10 9 11 10
16 15 15 15 15 16 16 15 14 14 13 13 12 11 11 10 9 8 6 5 6 5 5 5 4 5 5 6 7 6 6 7 7 5 4 6 7 5 10 11 12 12 14
15 15 15 15 15 16 16 15 13 13 13 13 12 10 9 8 7 5 5 4 4 4 3 4 5 5 7 8 8 8 10 9 8 5 7 7 7 8 12 12 10 10 10
15 15 16 16 16 16 15 14 13 13 13 12 11 9 8 7 5 3 3 3 3 3 4 5 6 7 8 9 9 10 10 10 7 7 7 7 7 10 11 13 13 11 10
14 14 16 15 14 14 15 15 13 12 11 10 10 8 7 6 4 3 2 2 2 3 5 6 7 7 9 10 11 11 11 9 8 7 7 7 8 11 11 11 15 13 11
15 14 13 13 13 14 14 12 11 10 9 8 7 6 5 4 2 1 0 2 4 6 7 8 8 9 10 10 10 10 10 9 6 7 9 8 7 11 13 13 13 14 14
11 11 11 13 13 12 12 12 11 10 9 8 7 6 5 4 2 1 2 3 5 5 6 9 10 10 10 9 8 8 8 8 8 6 8 6 11 14 15 14 13 13 14
10 10 11 11 14 13 12 12 12 10 9 8 7 7 5 4 1 2 1 3 3 6 10 9 10 9 8 8 8 8 8 5 8 8 6 6 13 14 15 16 16 14 13
11 12 11 11 11 10 11 11 10 10 10 7 7 5 5 3 3 3 4 6 9 10 10 9 9 8 5 6 7 8 8 5 8 6 6 10 14 14 15 15 16 16 15
13 14 12 11 11 11 8 9 10 9 7 6 6 5 5 4 2 1 5 10 10 10 10 10 8 5 4 5 5 6 5 7 6 7 6 12 13 14 14 15 15 14 15
17 12 14 12 11 11 9 6 4 4 4 4 5 5 3 3 3 3 4 4 4 4 2 2 3 4 6 6 6 6 8 7 5 6 7 12 12 13 13 14 13 14 14
15 15 15 15 12 10 6 5 5 4 4 3 3 4 3 3 3 4 3 4 2 2 3 3 3 4 5 6 7 8 8 7 5 5 6 10 11 11 11 12 12 12 13
14 14 15 13 11 9 8 5 5 5 4 3 3 4 3 3 3 4 3 3 3 2 3 3 4 4 5 5 6 7 8 7 8 5 5 6 10 9 10 12 12 13 15
14 13 12 13 11 11 9 8 4 3 4 4 4 4 5 4 4 3 3 3 3 3 2 3 4 3 5 6 6 7 7 7 7 6 5 5 6 8 10 12 12 12 13
13 11 12 11 11 11 10 8 5 5 5 4 4 5 6 4 4 3 3 3 1 2 4 2 2 4 5 6 7 6 6 7 5 5 4 4 4 1 9 12 12 12 13
12 12 10 9 10 12 10 8 6 5 5 5 5 5 6 6 4 2 2 2 2 3 2 2 4 4 5 6 7 7 6 7 5 4 3 4 4 5 6 8 12 12 13
12 11 12 13 13 11 9 7 6 7 6 6 6 6 6 5 4 2 3 3 2 2 2 4 3 5 6 6 8 8 7 6 5 5 4 4 4 5 5 7 10 10 11
8 9 10 10 12 12 8 7 6 6 6 6 6 5 6 4 4 3 4 3 1 0 1 3 5 5 6 6 9 9 9 5 5 6 7 8 7 6 6 7 7 7 11
6 8 11 12 13 11 9 8 6 6 7 6 5 6 5 4 4 3 3 3 2 2 3 4 5 7 7 6 7 8 6 4 3 1 6 7 7 6 9 8 6 6 7
7 8 9 11 13 9 7 5 4 8 5 5 5 5 5 5 3 3 2 1 1 2 3 3 4 6 5 5 7 9 5 2 5 10 3 9 6 7 10 9 10 9 8
7 9 9 9 10 9 10 9 9 8 6 5 4 4 3 1 3 2 1 2 2 3 4 4 4 5 6 5 6 5 6 5 12 1 10 5 10 10 9 11 10 9 9
7 8 10 10 10 9 11 10 12 6 7 3 3 3 3 4 4 4 3 3 3 3 5 4 4 5 5 6 5 4 6 9 9 10 3 12 8 10 12 10 10 9 9
9 10 11 11 10 8 8 8 7 7 7 6 5 6 5 5 5 4 3 3 3 4 3 5 5 4 3 5 6 6 8 8 9 10 15 12 11 11 12 10 10 10 9
9 10 10 11 8 8 8 8 8 11 10 7 6 4 3 3 2 2 1 2 3 4 4 3 2 2 3 4 5 6 7 8 9 7 12 16 16 12 9 10 11 8 7
Wind_Direction
156 150 152 150 147 141 138 126 116 115 114 114 117 119 121 120 119 118 117 112 107 101 96 92 84 75 68 62 56 50 45 36 27 24 16 0 341 318 292 270 264 259 168
146 153 151 149 147 144 139 133 128 126 122 124 126 128 123 124 121 120 118 116 115 109 99 85 74 67 66 67 62 54 42 30 14 6 358 339 340 336 314 309 271 275 233
148 150 153 148 149 146 143 143 137 134 132 135 131 131 129 132 129 131 132 130 120 104 94 85 78 73 67 57 45 31 16 1 349 344 349 337 338 340 328 316 305 258 245
149 150 154 151 150 149 150 146 141 138 138 138 138 141 141 142 142 148 141 125 111 100 89 81 69 53 43 36 27 15 4 354 346 360 327 343 336 346 327 323 318 293 244
156 154 151 153 155 154 153 148 145 145 148 148 150 152 150 147 156 149 123 109 96 82 66 46 37 30 26 22 15 11 7 3 3 319 356 356 343 15 333 326 310 307 242
154 160 150 159 161 156 154 152 153 157 159 158 157 154 153 161 157 134 107 83 59 38 24 21 20 24 27 25 21 25 24 25 325 11 11 3 336 348 336 341 317 296 273
157 168 164 162 160 157 160 165 165 164 161 160 165 165 170 167 158 146 121 79 31 24 17 18 23 31 36 42 49 43 30 21 352 358 347 340 358 359 344 355 354 330 285
159 168 163 163 166 166 171 169 167 166 168 168 167 171 177 173 174 175 55 23 20 14 12 19 35 52 66 56 47 42 29 14 333 342 335 332 13 343 333 333 337 337 330
155 166 171 176 177 174 176 169 170 179 178 175 176 181 183 178 192 253 2 15 18 18 40 63 70 71 63 59 49 43 26 9 329 339 326 320 353 324 318 314 314 317 318
153 174 185 186 187 189 183 178 186 186 182 183 188 192 192 193 183 93 51 65 33 82 91 83 79 74 70 57 40 26 7 332 335 322 314 327 323 318 312 308 304 300 296
178 184 189 194 196 192 191 190 190 195 197 194 204 200 196 212 206 204 70 98 106 105 102 95 88 75 64 53 26 3 329 331 323 321 307 342 320 314 307 304 301 296 294
194 198 191 198 195 199 199 196 200 202 203 199 202 202 211 198 208 188 107 116 112 107 96 88 73 60 360 343 334 324 328 318 311 312 308 324 315 309 305 304 303 298 290
195 196 195 195 200 204 211 198 202 206 201 202 210 200 196 189 155 145 144 140 134 109 94 78 36 21 1 341 335 326 320 316 317 313 320 321 321 316 318 309 302 296 312
198 201 193 195 194 200 211 209 200 213 204 208 208 210 193 184 147 130 117 116 109 65 64 28 17 7 350 340 336 328 325 321 321 311 317 326 329 325 329 327 330 327 328
211 204 203 194 198 194 203 208 210 202 198 202 209 201 198 173 145 139 122 109 80 68 37 14 9 355 345 329 332 339 335 327 318 311 307 332 336 339 342 333 328 324 316
217 209 203 202 198 191 203 206 201 198 194 194 191 170 154 156 145 144 131 93 67 18 36 17 21 337 340 334 330 337 325 321 317 319 325 325 340 340 347 344 340 327 320
214 208 201 203 195 197 200 201 194 190 180 189 171 154 140 141 139 130 99 71 24 74 48 46 321 341 332 321 321 319 317 322 311 339 330 338 341 310 351 346 342 334 327
216 214 196 193 201 196 196 191 183 172 169 157 151 143 136 129 136 133 102 101 85 70 69 334 353 339 331 326 318 318 319 315 295 304 281 329 334 325 318 342 338 333 330
220 216 204 190 188 193 185 171 160 146 150 147 146 141 129 110 103 105 100 113 107 131 24 344 355 344 325 325 320 315 314 308 273 232 2 321 312 315 334 340 335 325 327
216 213 196 185 173 166 154 139 130 136 133 142 132 121 113 113 118 122 117 107 199 139 331 353 356 343 318 336 330 323 313 296 278 269 251 307 308 312 322 331 327 334 327
190 180 177 172 163 162 156 154 153 143 138 133 123 114 110 119 105 125 138 142 226 310 14 5 339 326 336 348 313 321 304 270 263 320 257 294 304 293 325 322 308 327 326
164 168 167 170 165 171 157 143 139 140 142 133 118 104 91 101 114 165 153 173 264 338 345 327 341 326 325 349 330 312 314 281 229 332 35 324 330 311 312 317 312 316 323
145 150 156 158 155 146 136 126 120 112 125 139 130 114 78 102 116 85 124 342 341 304 306 320 327 311 322 326 337 330 328 327 326 140 315 326 325 317 316 315 299 310 314
140 136 129 130 127 140 149 143 153 149 148 110 120 100 96 71 73 76 52 3 326 314 310 310 290 297 292 321 322 326 310 305 319 314 274 311 306 305 312 304 307 303 305
142 130 122 127 130 144 139 144 143 123 110 123 128 112 89 91 77 57 20 333 314 288 283 277 286 296 301 311 321 332 319 317 309 303 303 315 309 316 310 304 308 302 300
130 129 131 124 128 123 123 124 124 131 131 132 130 143 144 130 116 72 1 311 294 280 270 289 299 326 3 334 337 330 325 322 315 301 297 304 306 317 317 311 296 302 297